Thunderstorms From: 25-05-2018 15:00 Until: 26-05-2018 15:00 warning for: Thunderstorms Level: Yellow info button

Although rather usual in this region, locally or potentially dangerous phenomena are expected. (such as local winds, summer thunderstorms, rising streams or high waves) Be aware and pay attention to the latest weather updates, especially if you carry out activities exposed to weather or close to a stream or shoreline. 


Meteo18 Weather Cam more information Meteo18 Weather Cam


warning for Thunderstorms more information blitzortung!


Rain radar more information rain snow radar


Visit our other weather sites:

Template documentation
and downloads

And another site



Weather Underground History page Text

Daily Summary for January 11, 2016 Units:  Metric    English   Both
« Previous Day
Next Day »
Daily Weekly Monthly Yearly Custom
  High: Low: Average:
Temperature: -17.8 °C -15.1 °C -14.3 °C
Dew Point: -17.8 °C -15.8 °C -14.9 °C
Humidity: Humidity % 79 % 91 %
Wind Speed: 0 km/h 0 km/h 11.9 km/h
Wind Gust: 0 km/h - -
Wind:- - SW
Pressure: 0 hPa 33511.2 hPa -
Precipitation: 535.94 mm    
Historical Graphs
 
 
Tabular Data for January 11, 2016
Time Temperature Dew Point Pressure Wind Wind Speed Wind Gust Humidity Rainfall Rate (Hourly)
-17.8 °C -17.8 °C 0 hPa Calm     Humidity % 0 mm
00:02 -14.6 °C -14.9 °C 33683.9 hPa West 7.7 km/h 7.7 km/h 96 % 0 mm
00:07 -14.6 °C -14.9 °C 33683.9 hPa Calm   7.7 km/h 96 % 0 mm
00:12 -14.5 °C -14.8 °C 33673.8 hPa Calm   7.7 km/h 96 % 0 mm
00:17 -14.5 °C -14.8 °C 33673.8 hPa Calm   7.7 km/h 96 % 0 mm
00:22 -14.4 °C -14.8 °C 33660.2 hPa Calm   7.7 km/h 96 % 0 mm
00:27 -14.4 °C -14.8 °C 33660.2 hPa Calm   2.6 km/h 96 % 0 mm
00:32 -14.4 °C -14.8 °C 33660.2 hPa Calm   2.6 km/h 95 % 0 mm
00:42 -14.4 °C -14.8 °C 33650.1 hPa Calm   10.3 km/h 95 % 0 mm
00:52 -14.4 °C -14.8 °C 33650.1 hPa Calm   10.3 km/h 95 % 0 mm
00:57 -14.3 °C -14.7 °C 33639.9 hPa Calm   7.7 km/h 95 % 0 mm
01:02 -14.4 °C -14.8 °C 33639.9 hPa Calm   7.7 km/h 95 % 0 mm
01:07 -14.4 °C -14.8 °C 33639.9 hPa WSW 2.6 km/h 5.1 km/h 95 % 0 mm
01:12 -14.4 °C -14.8 °C 33639.9 hPa Calm   5.1 km/h 95 % 0 mm
01:17 -14.3 °C -14.8 °C 33639.9 hPa WSW 2.6 km/h 7.7 km/h 94 % 0 mm
01:22 -14.3 °C -14.8 °C 33626.4 hPa NW 2.6 km/h 12.9 km/h 94 % 0 mm
01:27 -14.2 °C -14.8 °C 33639.9 hPa SW 5.1 km/h 12.9 km/h 93 % 0 mm
01:32 -14.2 °C -14.8 °C 33639.9 hPa SW 5.1 km/h 7.7 km/h 93 % 0 mm
01:37 -14.2 °C -14.8 °C 33626.4 hPa ESE 2.6 km/h 7.7 km/h 93 % 0 mm
01:42 -14.2 °C -14.8 °C 33626.4 hPa SW 5.1 km/h 10.3 km/h 93 % 0 mm
01:47 -14.2 °C -14.9 °C 33616.2 hPa East 10.3 km/h 18.2 km/h 92 % 7.62 mm
01:52 -14.2 °C -14.8 °C 33616.2 hPa WSW 7.7 km/h 18.2 km/h 93 % 7.62 mm
01:57 -14.2 °C -14.8 °C 33616.2 hPa WSW 5.1 km/h 18.2 km/h 93 % 7.62 mm
02:07 -14.3 °C -14.8 °C 33602.7 hPa South 5.1 km/h 15.6 km/h 93 % 7.62 mm
02:12 -14.3 °C -14.8 °C 33602.7 hPa WSW 2.6 km/h 15.6 km/h 93 % 12.7 mm
02:17 -14.3 °C -14.8 °C 33602.7 hPa SE 5.1 km/h 15.6 km/h 94 % 12.7 mm
02:22 -14.3 °C -14.8 °C 33602.7 hPa East 5.1 km/h 12.9 km/h 94 % 12.7 mm
02:27 -14.3 °C -14.8 °C 33602.7 hPa WSW 7.7 km/h 12.9 km/h 94 % 12.7 mm
02:32 -14.4 °C -14.9 °C 33602.7 hPa Calm   12.9 km/h 94 % 12.7 mm
02:37 -14.4 °C -14.9 °C 33602.7 hPa SW 5.1 km/h 12.9 km/h 94 % 12.7 mm
02:42 -14.4 °C -14.8 °C 33592.5 hPa Calm   12.9 km/h 95 % 12.7 mm
02:47 -14.4 °C -14.8 °C 33592.5 hPa SW 5.1 km/h 15.6 km/h 95 % 12.7 mm
02:52 -14.5 °C -14.9 °C 33592.5 hPa WNW 5.1 km/h 15.6 km/h 95 % 12.7 mm
02:57 -14.5 °C -14.9 °C 33582.3 hPa Calm   10.3 km/h 95 % 12.7 mm
03:02 -14.5 °C -14.9 °C 33568.8 hPa West 2.6 km/h 20.8 km/h 95 % 12.7 mm
03:07 -14.6 °C -14.9 °C 33568.8 hPa Calm   20.8 km/h 95 % 12.7 mm
03:12 -14.6 °C -14.9 °C 33558.6 hPa SW 5.1 km/h 20.8 km/h 96 % 12.7 mm
03:22 -14.6 °C -14.9 °C 33558.6 hPa WSW 2.6 km/h 12.9 km/h 96 % 12.7 mm
03:27 -14.6 °C -14.9 °C 33558.6 hPa Calm   12.9 km/h 96 % 12.7 mm
03:37 -14.6 °C -14.9 °C 33545.1 hPa Calm   10.3 km/h 96 % 7.62 mm
03:47 -14.6 °C -14.9 °C 33545.1 hPa West 2.6 km/h 12.9 km/h 96 % 7.62 mm
03:52 -14.6 °C -14.9 °C 33545.1 hPa Calm   12.9 km/h 96 % 7.62 mm
03:57 -14.6 °C -14.9 °C 33545.1 hPa West 7.7 km/h 12.9 km/h 96 % 7.62 mm
04:02 -14.6 °C -14.9 °C 33534.9 hPa SW 2.6 km/h 12.9 km/h 96 % 0 mm
04:07 -14.6 °C -14.9 °C 33534.9 hPa Calm   15.6 km/h 96 % 0 mm
04:12 -14.6 °C -14.9 °C 33534.9 hPa SSW 2.6 km/h 15.6 km/h 96 % 7.62 mm
04:17 -14.6 °C -14.9 °C 33534.9 hPa Calm   15.6 km/h 96 % 7.62 mm
04:27 -14.6 °C -14.9 °C 33524.8 hPa Calm   10.3 km/h 96 % 12.7 mm
04:32 -14.6 °C -14.9 °C 33524.8 hPa Calm   10.3 km/h 96 % 12.7 mm
04:37 -14.7 °C -14.9 °C 33524.8 hPa Calm   10.3 km/h 97 % 12.7 mm
04:42 -14.7 °C -14.9 °C 33524.8 hPa WSW 2.6 km/h 10.3 km/h 97 % 12.7 mm
04:47 -14.7 °C -14.9 °C 33524.8 hPa Calm   7.7 km/h 97 % 12.7 mm
04:52 -14.6 °C -14.8 °C 33524.8 hPa Calm   7.7 km/h 97 % 12.7 mm
05:02 -14.6 °C -14.8 °C 33524.8 hPa WSW 5.1 km/h 5.1 km/h 97 % 12.7 mm
05:07 -14.6 °C -14.8 °C 33524.8 hPa WSW 2.6 km/h 7.7 km/h 97 % 20.32 mm
05:12 -14.6 °C -14.8 °C 33524.8 hPa SSW 2.6 km/h 7.7 km/h 97 % 25.4 mm
05:17 -14.6 °C -14.8 °C 33524.8 hPa South 5.1 km/h 7.7 km/h 97 % 38.1 mm
05:22 -14.6 °C -14.8 °C 33524.8 hPa Calm   7.7 km/h 97 % 45.72 mm
05:32 -14.5 °C -14.7 °C 33524.8 hPa WSW 2.6 km/h 7.7 km/h 97 % 50.8 mm
05:37 -14.5 °C -14.7 °C 33524.8 hPa SSW 2.6 km/h 7.7 km/h 97 % 58.42 mm
05:42 -14.5 °C -14.7 °C 33524.8 hPa SW 7.7 km/h 7.7 km/h 97 % 58.42 mm
05:47 -14.5 °C -14.7 °C 33511.2 hPa SW 5.1 km/h 10.3 km/h 97 % 63.5 mm
05:52 -14.4 °C -14.7 °C 33511.2 hPa SW 10.3 km/h 10.3 km/h 97 % 71.12 mm
05:57 -14.4 °C -14.7 °C 33524.8 hPa SW 7.7 km/h 10.3 km/h 97 % 63.5 mm
06:02 -14.4 °C -14.6 °C 33524.8 hPa SW 10.3 km/h 10.3 km/h 97 % 63.5 mm
06:07 -14.4 °C -14.6 °C 33524.8 hPa WSW 5.1 km/h 10.3 km/h 97 % 58.42 mm
06:12 -14.4 °C -14.6 °C 33511.2 hPa WSW 2.6 km/h 10.3 km/h 97 % 50.8 mm
06:17 -14.4 °C -14.6 °C 33511.2 hPa WNW 5.1 km/h 10.3 km/h 97 % 50.8 mm
06:22 -14.4 °C -14.6 °C 33511.2 hPa WSW 5.1 km/h 10.3 km/h 97 % 38.1 mm
06:27 -14.4 °C -14.6 °C 33511.2 hPa WNW 5.1 km/h 15.6 km/h 97 % 38.1 mm
06:37 -14.3 °C -14.6 °C 33511.2 hPa SSW 10.3 km/h 15.6 km/h 97 % 20.32 mm
06:42 -14.3 °C -14.5 °C 33511.2 hPa WSW 7.7 km/h 15.6 km/h 97 % 20.32 mm
06:52 -14.2 °C -14.5 °C 33524.8 hPa WSW 7.7 km/h 25.9 km/h 96 % 0 mm
06:57 -14.1 °C -14.4 °C 33524.8 hPa WNW 2.6 km/h 23.3 km/h 96 % 0 mm
07:02 -14 °C -14.3 °C 33524.8 hPa SW 10.3 km/h 23.3 km/h 96 % 0 mm
07:07 -13.9 °C -14.3 °C 33524.8 hPa SW 12.9 km/h 33.6 km/h 95 % 0 mm
07:12 -13.9 °C -14.4 °C 33524.8 hPa SSE 15.6 km/h 33.6 km/h 94 % 0 mm
07:17 -13.9 °C -14.4 °C 33511.2 hPa WSW 18.2 km/h 31.1 km/h 94 % 0 mm
07:22 -13.9 °C -14.4 °C 33524.8 hPa SSW 15.6 km/h 31.1 km/h 94 % 0 mm
07:27 -13.8 °C -14.3 °C 33524.8 hPa SW 18.2 km/h 33.6 km/h 94 % 0 mm
07:32 -13.8 °C -14.3 °C 33524.8 hPa West 10.3 km/h 33.6 km/h 94 % 0 mm
07:37 -13.8 °C -14.4 °C 33524.8 hPa SW 23.3 km/h 33.6 km/h 93 % 0 mm
07:42 -13.8 °C -14.4 °C 33524.8 hPa WSW 12.9 km/h 33.6 km/h 93 % 0 mm
07:52 -13.8 °C -14.4 °C 33524.8 hPa SW 12.9 km/h 25.9 km/h 93 % 0 mm
08:02 -13.8 °C -14.4 °C 33534.9 hPa WSW 10.3 km/h 25.9 km/h 93 % 0 mm
08:07 -13.8 °C -14.4 °C 33534.9 hPa WSW 5.1 km/h 23.3 km/h 93 % 0 mm
08:12 -13.8 °C -14.4 °C 33534.9 hPa WSW 10.3 km/h 23.3 km/h 93 % 0 mm
08:17 -13.8 °C -14.4 °C 33534.9 hPa SW 5.1 km/h 25.9 km/h 93 % 0 mm
08:22 -13.8 °C -14.4 °C 33534.9 hPa SW 7.7 km/h 25.9 km/h 93 % 0 mm
08:27 -13.8 °C -14.4 °C 33534.9 hPa SW 15.6 km/h 31.1 km/h 93 % 0 mm
08:32 -13.7 °C -14.4 °C 33534.9 hPa SW 10.3 km/h 31.1 km/h 92 % 0 mm
08:37 -13.8 °C -14.4 °C 33534.9 hPa WSW 5.1 km/h 23.3 km/h 92 % 0 mm
08:42 -13.8 °C -14.4 °C 33534.9 hPa SSW 10.3 km/h 23.3 km/h 92 % 0 mm
08:47 -13.8 °C -14.4 °C 33534.9 hPa South 10.3 km/h 23.3 km/h 92 % 0 mm
08:52 -13.7 °C -14.5 °C 33534.9 hPa South 5.1 km/h 25.9 km/h 91 % 0 mm
08:57 -13.7 °C -14.5 °C 33534.9 hPa WSW 10.3 km/h 31.1 km/h 90 % 7.62 mm
09:02 -13.7 °C -14.6 °C 33534.9 hPa SW 15.6 km/h 31.1 km/h 89 % 7.62 mm
09:07 -13.7 °C -14.6 °C 33534.9 hPa WSW 12.9 km/h 36.2 km/h 89 % 7.62 mm
09:12 -13.7 °C -14.7 °C 33545.1 hPa WSW 23.3 km/h 36.2 km/h 88 % 7.62 mm
09:17 -13.7 °C -14.7 °C 33545.1 hPa SW 10.3 km/h 36.2 km/h 88 % 7.62 mm
09:22 -13.7 °C -14.7 °C 33545.1 hPa WSW 12.9 km/h 33.6 km/h 88 % 7.62 mm
09:32 -13.6 °C -14.6 °C 33545.1 hPa WSW 12.9 km/h 33.6 km/h 88 % 7.62 mm
09:37 -13.6 °C -14.6 °C 33545.1 hPa SW 18.2 km/h 36.2 km/h 88 % 7.62 mm
09:42 -13.6 °C -14.5 °C 33545.1 hPa SW 31.1 km/h 36.2 km/h 89 % 7.62 mm
09:47 -13.6 °C -14.4 °C 33545.1 hPa SW 15.6 km/h 41.4 km/h 90 % 7.62 mm
09:52 -13.7 °C -14.5 °C 33545.1 hPa SSW 12.9 km/h 41.4 km/h 90 % 7.62 mm
09:57 -13.7 °C -14.5 °C 33558.6 hPa WSW 12.9 km/h 41.4 km/h 91 % 12.7 mm
10:02 -13.7 °C -14.4 °C 33582.3 hPa SE 7.7 km/h 36.2 km/h 92 % 33.02 mm
10:07 -14.4 °C -15.4 °C 33592.5 hPa SW 38.8 km/h 38.8 km/h 88 % 58.42 mm
10:12 -14.9 °C -15.6 °C 33582.3 hPa North 10.3 km/h 44.1 km/h 91 % 129.54 mm
10:17 -14.9 °C -15.5 °C 33582.3 hPa SW 10.3 km/h 44.1 km/h 93 % 154.94 mm
10:22 -14.9 °C -15.5 °C 33582.3 hPa West 10.3 km/h 44.1 km/h 93 % 175.26 mm
10:32 -14.7 °C -15.3 °C 33568.8 hPa SSW 20.8 km/h 38.8 km/h 92 % 187.96 mm
10:37 -14.6 °C -15.2 °C 33568.8 hPa WSW 20.8 km/h 38.8 km/h 92 % 193.04 mm
10:42 -14.4 °C -15.2 °C 33568.8 hPa WSW 12.9 km/h 38.8 km/h 91 % 193.04 mm
10:47 -14.3 °C -15 °C 33568.8 hPa South 12.9 km/h 33.6 km/h 92 % 193.04 mm
10:52 -14.3 °C -14.9 °C 33568.8 hPa SW 15.6 km/h 33.6 km/h 92 % 187.96 mm
10:57 -14.2 °C -14.9 °C 33568.8 hPa SW 18.2 km/h 33.6 km/h 92 % 175.26 mm
11:02 -14.2 °C -14.9 °C 33568.8 hPa SSE 12.9 km/h 33.6 km/h 92 % 154.94 mm
11:07 -14.2 °C -14.9 °C 33568.8 hPa WSW 10.3 km/h 28.5 km/h 92 % 96.52 mm
11:12 -14.2 °C -14.8 °C 33582.3 hPa SSW 10.3 km/h 28.5 km/h 93 % 50.8 mm
11:17 -14.1 °C -14.7 °C 33582.3 hPa SW 23.3 km/h 31.1 km/h 93 % 38.1 mm
11:22 -14.1 °C -14.8 °C 33582.3 hPa SW 33.6 km/h 33.6 km/h 91 % 20.32 mm
11:27 -14 °C -14.8 °C 33582.3 hPa WSW 15.6 km/h 33.6 km/h 90 % 12.7 mm
11:32 -13.9 °C -14.8 °C 33582.3 hPa SW 12.9 km/h 38.8 km/h 90 % 12.7 mm
11:37 -13.9 °C -14.7 °C 33582.3 hPa WSW 12.9 km/h 38.8 km/h 91 % 12.7 mm
11:42 -13.8 °C -14.7 °C 33568.8 hPa SW 20.8 km/h 31.1 km/h 90 % 12.7 mm
11:47 -13.7 °C -14.7 °C 33568.8 hPa SSW 12.9 km/h 46.7 km/h 89 % 12.7 mm
11:52 -13.7 °C -14.7 °C 33568.8 hPa WSW 15.6 km/h 46.7 km/h 89 % 12.7 mm
11:57 -13.7 °C -14.7 °C 33582.3 hPa WSW 15.6 km/h 46.7 km/h 88 % 12.7 mm
12:02 -13.7 °C -14.6 °C 33568.8 hPa SW 10.3 km/h 36.2 km/h 89 % 12.7 mm
12:07 -13.6 °C -14.6 °C 33558.6 hPa South 20.8 km/h 36.2 km/h 89 % 7.62 mm
12:12 -13.6 °C -14.6 °C 33558.6 hPa SW 28.5 km/h 41.4 km/h 88 % 7.62 mm
12:17 -13.6 °C -14.6 °C 33568.8 hPa WSW 20.8 km/h 41.4 km/h 88 % 7.62 mm
12:22 -13.6 °C -14.5 °C 33568.8 hPa SW 15.6 km/h 41.4 km/h 89 % 7.62 mm
12:27 -13.6 °C -14.6 °C 33568.8 hPa SSW 20.8 km/h 36.2 km/h 88 % 0 mm
12:32 -13.5 °C -14.6 °C 33568.8 hPa WSW 10.3 km/h 36.2 km/h 87 % 0 mm
12:42 -13.4 °C -14.6 °C 33568.8 hPa SW 10.3 km/h 38.8 km/h 87 % 0 mm
12:47 -13.4 °C -14.4 °C 33568.8 hPa SW 20.8 km/h 36.2 km/h 88 % 0 mm
12:52 -13.4 °C -14.6 °C 33568.8 hPa WSW 7.7 km/h 36.2 km/h 86 % 0 mm
12:57 -13.3 °C -14.5 °C 33568.8 hPa WSW 20.8 km/h 36.2 km/h 86 % 0 mm
13:02 -13.2 °C -14.6 °C 33568.8 hPa NW 20.8 km/h 38.8 km/h 85 % 0 mm
13:12 -13.2 °C -14.5 °C 33558.6 hPa SW 12.9 km/h 36.2 km/h 85 % 0 mm
13:17 -13.1 °C -14.4 °C 33568.8 hPa SW 25.9 km/h 33.6 km/h 85 % 0 mm
13:22 -13 °C -14.4 °C 33568.8 hPa SW 10.3 km/h 33.6 km/h 84 % 0 mm
13:27 -13 °C -14.4 °C 33568.8 hPa SW 18.2 km/h 33.6 km/h 84 % 0 mm
13:32 -13.1 °C -14.5 °C 33558.6 hPa SW 20.8 km/h 41.4 km/h 84 % 0 mm
13:37 -13.1 °C -14.5 °C 33568.8 hPa SW 15.6 km/h 59.5 km/h 84 % 0 mm
13:42 -13.2 °C -14.5 °C 33558.6 hPa WSW 12.9 km/h 59.5 km/h 85 % 0 mm
13:52 -13.2 °C -14.9 °C 33558.6 hPa SW 38.8 km/h 44.1 km/h 80 % 0 mm
13:57 -13.3 °C -15.2 °C 33558.6 hPa WSW 23.3 km/h 49.2 km/h 79 % 0 mm
14:02 -13.4 °C -15.2 °C 33558.6 hPa WSW 20.8 km/h 49.2 km/h 80 % 0 mm
14:12 -13.8 °C -15.2 °C 33568.8 hPa SW 20.8 km/h 44.1 km/h 85 % 7.62 mm
14:17 -14.1 °C -15 °C 33582.3 hPa SW 5.1 km/h 51.8 km/h 89 % 12.7 mm
14:22 -14.2 °C -15.1 °C 33568.8 hPa WSW 18.2 km/h 51.8 km/h 90 % 12.7 mm
14:27 -14.3 °C -15.1 °C 33568.8 hPa SW 18.2 km/h 46.7 km/h 91 % 20.32 mm
14:32 -14.3 °C -15.1 °C 33582.3 hPa SW 25.9 km/h 36.2 km/h 91 % 20.32 mm
14:37 -14.4 °C -15.2 °C 33582.3 hPa SW 7.7 km/h 33.6 km/h 90 % 25.4 mm
14:42 -14.4 °C -15.3 °C 33582.3 hPa WSW 28.5 km/h 31.1 km/h 89 % 25.4 mm
14:47 -14.4 °C -15.2 °C 33582.3 hPa SSW 18.2 km/h 38.8 km/h 91 % 33.02 mm
14:52 -14.5 °C -15.2 °C 33592.5 hPa WSW 23.3 km/h 38.8 km/h 92 % 38.1 mm
15:02 -14.5 °C -15.2 °C 33592.5 hPa SW 15.6 km/h 36.2 km/h 92 % 50.8 mm
15:12 -14.5 °C -15.1 °C 33582.3 hPa SSW 15.6 km/h 36.2 km/h 93 % 38.1 mm
15:17 -14.4 °C -15.1 °C 33582.3 hPa SW 7.7 km/h 38.8 km/h 92 % 38.1 mm
15:22 -14.4 °C -15.1 °C 33592.5 hPa WSW 18.2 km/h 38.8 km/h 92 % 38.1 mm
15:27 -14.4 °C -15.1 °C 33592.5 hPa SW 12.9 km/h 38.8 km/h 92 % 33.02 mm
15:32 -14.3 °C -15.1 °C 33592.5 hPa SW 12.9 km/h 46.7 km/h 91 % 33.02 mm
15:37 -14.3 °C -15.1 °C 33592.5 hPa SW 12.9 km/h 46.7 km/h 91 % 25.4 mm
15:42 -14.3 °C -15.1 °C 33602.7 hPa WSW 20.8 km/h 38.8 km/h 91 % 25.4 mm
15:47 -14.3 °C -15.1 °C 33602.7 hPa WSW 10.3 km/h 36.2 km/h 91 % 20.32 mm
15:52 -14.2 °C -15 °C 33602.7 hPa SW 20.8 km/h 36.2 km/h 91 % 12.7 mm
15:57 -14.2 °C -15.1 °C 33616.2 hPa SW 28.5 km/h 38.8 km/h 90 % 7.62 mm
16:02 -14.1 °C -14.9 °C 33616.2 hPa SW 20.8 km/h 38.8 km/h 90 % 0 mm
16:12 -14.1 °C -15 °C 33616.2 hPa SW 20.8 km/h 44.1 km/h 89 % 0 mm
16:17 -14.1 °C -15 °C 33626.4 hPa WSW 18.2 km/h 44.1 km/h 89 % 0 mm
16:22 -14 °C -14.9 °C 33626.4 hPa SW 10.3 km/h 38.8 km/h 89 % 0 mm
16:27 -14 °C -15 °C 33639.9 hPa SW 18.2 km/h 38.8 km/h 88 % 0 mm
16:32 -14 °C -15 °C 33639.9 hPa SW 10.3 km/h 36.2 km/h 88 % 0 mm
16:37 -13.9 °C -14.9 °C 33639.9 hPa SSW 12.9 km/h 36.2 km/h 88 % 0 mm
16:42 -13.9 °C -15.1 °C 33639.9 hPa South 12.9 km/h 31.1 km/h 87 % 0 mm
16:47 -14 °C -15.1 °C 33650.1 hPa SW 15.6 km/h 31.1 km/h 87 % 0 mm
16:52 -14 °C -15.1 °C 33650.1 hPa WSW 10.3 km/h 31.1 km/h 87 % 0 mm
16:57 -14 °C -15.1 °C 33650.1 hPa South 7.7 km/h 31.1 km/h 87 % 0 mm
17:02 -14 °C -15 °C 33650.1 hPa SW 15.6 km/h 31.1 km/h 88 % 0 mm
17:12 -14.1 °C -15.1 °C 33650.1 hPa WSW 10.3 km/h 33.6 km/h 88 % 0 mm
17:22 -14.2 °C -15.1 °C 33660.2 hPa SW 20.8 km/h 33.6 km/h 89 % 0 mm
17:27 -14.2 °C -15.2 °C 33660.2 hPa SW 18.2 km/h 36.2 km/h 89 % 0 mm
17:32 -14.2 °C -15.2 °C 33660.2 hPa SW 25.9 km/h 36.2 km/h 89 % 0 mm
17:37 -14.2 °C -15.2 °C 33673.8 hPa SW 15.6 km/h 36.2 km/h 89 % 0 mm
17:47 -14.1 °C -15.1 °C 33673.8 hPa SW 5.1 km/h 38.8 km/h 89 % 0 mm
17:52 -14.1 °C -15.1 °C 33673.8 hPa SW 7.7 km/h 36.2 km/h 89 % 0 mm
17:57 -14.1 °C -15.1 °C 33673.8 hPa SW 15.6 km/h 36.2 km/h 89 % 0 mm
18:02 -14.1 °C -15.1 °C 33673.8 hPa SW 20.8 km/h 31.1 km/h 89 % 0 mm
18:12 -14.1 °C -15.1 °C 33683.9 hPa WSW 10.3 km/h 36.2 km/h 89 % 0 mm
18:17 -14.1 °C -15.1 °C 33694.1 hPa South 15.6 km/h 31.1 km/h 89 % 0 mm
18:22 -14.1 °C -15.1 °C 33694.1 hPa WSW 10.3 km/h 31.1 km/h 89 % 0 mm
18:27 -14.1 °C -15.1 °C 33694.1 hPa SW 23.3 km/h 33.6 km/h 89 % 0 mm
18:32 -14.1 °C -14.9 °C 33707.6 hPa SW 15.6 km/h 33.6 km/h 90 % 0 mm
18:42 -14.3 °C -15.1 °C 33707.6 hPa SW 28.5 km/h 38.8 km/h 90 % 33.02 mm
18:47 -14.5 °C -15.3 °C 33717.8 hPa SSW 15.6 km/h 41.4 km/h 91 % 45.72 mm
18:52 -14.6 °C -15.3 °C 33707.6 hPa WSW 18.2 km/h 41.4 km/h 91 % 58.42 mm
18:57 -14.7 °C -15.4 °C 33707.6 hPa WSW 25.9 km/h 41.4 km/h 91 % 76.2 mm
19:02 -14.8 °C -15.6 °C 33707.6 hPa SW 15.6 km/h 41.4 km/h 91 % 76.2 mm
19:12 -14.8 °C -15.5 °C 33707.6 hPa SW 10.3 km/h 44.1 km/h 92 % 76.2 mm
19:17 -14.8 °C -15.4 °C 33717.8 hPa SSW 12.9 km/h 44.1 km/h 93 % 76.2 mm
19:22 -14.8 °C -15.4 °C 33717.8 hPa SW 15.6 km/h 33.6 km/h 93 % 76.2 mm
19:27 -14.8 °C -15.3 °C 33717.8 hPa WSW 10.3 km/h 33.6 km/h 94 % 83.82 mm
19:32 -14.8 °C -15.3 °C 33707.6 hPa WSW 15.6 km/h 33.6 km/h 94 % 83.82 mm
19:37 -14.7 °C -15.2 °C 33707.6 hPa WSW 20.8 km/h 28.5 km/h 94 % 76.2 mm
19:42 -14.7 °C -15.2 °C 33707.6 hPa SW 10.3 km/h 38.8 km/h 94 % 58.42 mm
19:47 -14.7 °C -15.1 °C 33707.6 hPa WSW 12.9 km/h 38.8 km/h 95 % 38.1 mm
19:52 -14.6 °C -15 °C 33717.8 hPa WSW 10.3 km/h 38.8 km/h 95 % 33.02 mm
19:57 -14.6 °C -15.1 °C 33731.3 hPa SW 5.1 km/h 25.9 km/h 94 % 20.32 mm
20:02 -14.6 °C -15.1 °C 33731.3 hPa West 2.6 km/h 31.1 km/h 94 % 25.4 mm
20:12 -14.7 °C -15.2 °C 33731.3 hPa SSW 15.6 km/h 51.8 km/h 93 % 71.12 mm
20:17 -14.7 °C -15.4 °C 33731.3 hPa WSW 12.9 km/h 51.8 km/h 92 % 76.2 mm
20:22 -14.8 °C -15.4 °C 33717.8 hPa NNW 5.1 km/h 28.5 km/h 92 % 76.2 mm
20:27 -14.8 °C -15.4 °C 33707.6 hPa SSW 7.7 km/h 31.1 km/h 92 % 83.82 mm
20:32 -14.8 °C -15.5 °C 33707.6 hPa WSW 12.9 km/h 31.1 km/h 92 % 76.2 mm
20:37 -14.9 °C -15.6 °C 33707.6 hPa WSW 5.1 km/h 31.1 km/h 92 % 71.12 mm
20:42 -14.9 °C -15.6 °C 33707.6 hPa SSW 10.3 km/h 33.6 km/h 92 % 76.2 mm
20:47 -14.9 °C -15.6 °C 33717.8 hPa SW 10.3 km/h 33.6 km/h 92 % 71.12 mm
20:52 -15.1 °C -15.7 °C 33717.8 hPa WSW 15.6 km/h 33.6 km/h 92 % 71.12 mm
20:57 -15.1 °C -15.7 °C 33717.8 hPa South 12.9 km/h 28.5 km/h 92 % 63.5 mm
21:02 -15.1 °C -15.8 °C 33707.6 hPa WSW 12.9 km/h 28.5 km/h 92 % 58.42 mm
21:07 -15.1 °C -15.7 °C 33717.8 hPa SW 7.7 km/h 25.9 km/h 92 % 38.1 mm
21:12 -15.1 °C -15.7 °C 33717.8 hPa SW 10.3 km/h 23.3 km/h 92 % 20.32 mm
21:17 -14.9 °C -15.6 °C 33717.8 hPa WSW 20.8 km/h 23.3 km/h 92 % 12.7 mm
21:22 -14.8 °C -15.5 °C 33717.8 hPa SW 10.3 km/h 31.1 km/h 92 % 7.62 mm
21:32 -14.8 °C -15.3 °C 33731.3 hPa West 28.5 km/h 31.1 km/h 93 % 7.62 mm
21:37 -14.8 °C -15.3 °C 33717.8 hPa SW 15.6 km/h 33.6 km/h 93 % 12.7 mm
21:47 -14.8 °C -15.3 °C 33717.8 hPa South 15.6 km/h 33.6 km/h 93 % 7.62 mm
21:57 -14.7 °C -15.2 °C 33717.8 hPa WSW 12.9 km/h 36.2 km/h 93 % 7.62 mm
22:02 -14.6 °C -15.2 °C 33717.8 hPa West 7.7 km/h 38.8 km/h 93 % 7.62 mm
22:12 -14.6 °C -15.1 °C 33731.3 hPa SW 18.2 km/h 38.8 km/h 93 % 7.62 mm
22:17 -14.6 °C -15.2 °C 33731.3 hPa SW 15.6 km/h 31.1 km/h 92 % 7.62 mm
22:22 -14.6 °C -15.2 °C 33731.3 hPa SW 20.8 km/h 36.2 km/h 92 % 7.62 mm
22:32 -14.5 °C -15.3 °C 33731.3 hPa SSW 12.9 km/h 51.8 km/h 91 % 0 mm
22:42 -14.6 °C -15.4 °C 33731.3 hPa SW 20.8 km/h 36.2 km/h 90 % 0 mm
22:47 -14.6 °C -15.5 °C 33731.3 hPa WSW 15.6 km/h 33.6 km/h 89 % 0 mm
22:52 -14.6 °C -15.6 °C 33731.3 hPa SW 20.8 km/h 36.2 km/h 89 % 0 mm
22:57 -14.6 °C -15.5 °C 33741.5 hPa SW 20.8 km/h 36.2 km/h 89 % 0 mm
23:12 -14.7 °C -15.6 °C 33751.6 hPa SW 15.6 km/h 51.8 km/h 89 % 0 mm
23:17 -14.6 °C -15.6 °C 33751.6 hPa SW 18.2 km/h 44.1 km/h 89 % 0 mm
23:22 -14.7 °C -15.6 °C 33751.6 hPa SW 28.5 km/h 38.8 km/h 89 % 0 mm
23:27 -14.7 °C -15.6 °C 33751.6 hPa WSW 15.6 km/h 38.8 km/h 89 % 0 mm
23:32 -14.7 °C -15.6 °C 33751.6 hPa SW 20.8 km/h 38.8 km/h 89 % 0 mm
23:37 -14.7 °C -15.6 °C 33765.2 hPa SW 15.6 km/h 41.4 km/h 89 % 0 mm
23:42 -14.7 °C -15.5 °C 33765.2 hPa SSW 10.3 km/h 41.4 km/h 90 % 0 mm
23:47 -14.7 °C -15.5 °C 33765.2 hPa ESE 10.3 km/h 36.2 km/h 90 % 0 mm
23:52 -14.7 °C -15.5 °C 33765.2 hPa WSW 15.6 km/h 31.1 km/h 90 % 0 mm
23:57 -14.6 °C -15.4 °C 33775.4 hPa SW 20.8 km/h 36.2 km/h 90 % 0 mm
Meteo18
Compliments of Weather Underground - 4 mb

Script developed by  Jim McMurry - jmcmurry@mwt.net Adapted for the template by  Wim van der Kuil - Leuven-Template.eu

You find our weather info also at:

European Weather Network

Weather Underground

Equipment we use:

Weather-station
Davis Vue

Weather-program
Meteobridge

Weather-server
Raspberry PI 2 B+

Provider
1 and 1

Davis Vue

Meteobridge

Raspberry PI 2 B+

1 and 1